Location: Unspecified
(0.0000°N, 0.0000°E)
Time: 00:00:29
(UTC+00:00)

LilacSat-2 - Visible Passes

Search period start: 26 April 2018 00:00
Search period end: 06 May 2018 00:00
Orbit: 515 x 536 km, 97.5° (Epoch: 25 April)

Date Brightness Start Highest point End Pass type
(mag) Time Alt. Az. Time Alt. Az. Time Alt. Az.
26 Apr ? 05:03:30 10° NE 05:06:28 22° ESE 05:09:26 10° SSE visible
26 Apr ? 18:32:43 10° SW 18:34:35 13° WSW 18:36:28 10° WNW visible
27 Apr ? 04:52:34 10° ENE 04:54:42 15° ESE 04:56:51 10° SE visible
27 Apr ? 18:19:59 10° SSW 18:22:50 20° WSW 18:25:42 10° NW visible
02 May ? 05:26:12 10° NNE 05:29:51 54° E 05:33:32 10° S visible
03 May ? 05:14:41 10° NE 05:18:06 34° ESE 05:21:31 10° SSE visible
04 May ? 05:03:23 10° NE 05:06:20 22° ESE 05:09:17 10° SSE visible
04 May ? 18:32:36 10° SW 18:34:29 13° WSW 18:36:22 10° WNW visible
05 May ? 04:52:25 10° ENE 04:54:34 15° ESE 04:56:43 10° SE visible
05 May ? 18:19:53 10° SSW 18:22:44 20° WSW 18:25:35 10° NW visible
